Location: Bucquoy
(50.1391°N, 2.7097°E)
Time: 02:01:15
(UTC+00:00)

Meteor 1-23 Rocket - Pass Details

Date: 06 May 2021
Orbit: 838 x 887 km, 81.3° (Epoch: 22 June)

Event Time Altitude Azimuth Distance (km) Brightness Sun altitude
Exits shadow 01:35:49 34° 212° (SSW) 1,419 4.8 -19.0°
Maximum altitude 01:38:23 67° 284° (WNW) 958 4.4 -18.8°
Drops below altitude 10° 01:44:13 10° 8° (N) 2,564 7.7 -18.4°
Sets 01:46:42 0° 11° (N) 3,508 8.8 -18.2°
